[[{"header":{"parameterUnit":"m.s-1","parameterCategory":1,"la1":30.2992,"la2":30.254,"lo1":-89.0895,"lo2":-89.0443,"dy":0.0025,"dx":0.0025,"nx":19,"ny":19,"refTime":"2026-04-21T03:00:00:Z","depth":0,"parameterNumber":2,"parameterNumberName":"U-component_of_WINDS"},"data":[0,0,0,-2.8939,-2.8942,-2.9099,-2.91,-2.9301,-2.9302,0,0,0,0,0,0,0,0,0,0,0,-2.8891,-2.8892,-2.8938,-2.8942,-2.9099,-2.91,-2.93,-2.9302,0,0,0,0,0,0,0,0,0,0,0,-2.889,-2.8892,-2.8893,-2.8943,-2.9099,-2.91,-2.93,-2.9182,0,0,0,0,0,0,0,0,0,0,-2.9029,-2.8983,-2.8891,-2.8893,-2.8944,-2.9099,-2.91,-2.9176,-2.9189,-2.9229,0,-2.9262,0,-2.9285,-2.9316,-2.9316,0,0,0,-2.8944,-2.8972,-2.9016,-2.8893,-2.8945,-2.9099,-2.9029,-2.9183,-2.9198,-2.9246,-2.9265,-2.9273,-2.9289,-2.9317,-2.9318,-2.9538,-2.9539,0,0,-2.8935,-2.8918,-2.9005,-2.9025,-2.8999,-2.9024,-2.9034,-2.9192,-2.9213,-2.9266,-2.9278,-2.9292,-2.9318,-2.932,-2.9537,-2.9538,0,0,0,-2.8909,-2.8912,-2.8952,-2.9017,-2.9045,-2.9028,-2.904,-2.9206,-2.922,-2.928,-2.9294,-2.9319,-2.9322,-2.9536,-2.9537,-2.9567,0,0,0,-2.8904,-2.8897,-2.8948,-2.8939,-2.9042,-2.9127,-2.9049,-2.9209,-2.9227,-2.9293,-2.9319,-2.9324,-2.9535,-2.9537,-2.9564,-2.9584,0,0,0,-2.8881,-2.8894,-2.8916,-2.8938,-2.9005,-2.9125,-2.9148,-2.9213,-2.9236,-2.9316,-2.9324,-2.9534,-2.9536,-2.9561,-2.9579,-2.9636,0,0,0,-2.8852,-2.8942,-2.8917,-2.9023,-2.9003,-2.9142,-2.9147,-2.9252,-2.9324,-2.932,-2.9535,-2.9537,-2.956,-2.9577,-2.9633,-2.968,-2.9698,0,0,-2.8956,-2.8954,-2.9017,-2.9,-2.9137,-2.9119,-2.9262,-2.9345,-2.9369,-2.9481,-2.9486,-2.9565,-2.9579,-2.9635,-2.9806,-2.9821,0,0,0,-2.9045,-2.909,-2.913,-2.9197,-2.9262,-2.9319,-2.9382,-2.9413,-2.9508,-2.9422,-2.9602,-2.9611,-2.9644,-2.9667,-2.968,-2.9709,-2.9547,-2.9547,-2.9547,-2.9168,-2.9192,-2.9299,-2.9343,-2.9408,-2.9471,-2.9527,-2.9579,-2.9586,-2.9628,-2.9661,-2.9762,-2.9788,-2.9797,-2.9828,-2.9689,-2.9689,-2.9689,-2.9689,-2.9322,-2.939,-2.9396,-2.9501,-2.9527,-2.9617,-2.9682,-2.9684,-2.9772,-2.9739,-2.977,-2.9731,-2.9812,-2.984,-2.9691,-2.9691,-2.9691,-2.969,-2.969,-2.9404,-2.9441,-2.9476,-2.9575,-2.9649,-2.9691,-2.9775,-2.9796,-2.9817,-2.9848,-2.9885,-2.9884,-2.9886,-2.9864,-2.9864,-2.9865,-2.9865,-2.9865,-2.9865,-2.9476,-2.9515,-2.9582,-2.9657,-2.9703,-2.9766,-2.983,-2.9876,-2.9933,-2.9942,-2.9942,-2.9945,-2.9815,-2.9782,-2.9871,-2.987,-2.9869,-2.9869,-2.9868,-2.9622,-2.9592,-2.9696,-2.9741,-2.9832,-2.9903,-2.9929,-3.0021,-3.0063,-3.0103,-3.01,-3.0001,-3.0,-2.9991,-2.9963,-3.0094,-3.0094,-3.0094,-3.0094,-2.9692,-2.9693,-2.9803,-2.9874,-2.9947,-2.998,-3.0098,-3.0149,-3.0198,-3.0225,-3.021,-3.0175,-3.0165,-3.0171,-3.0158,-3.0132,-3.0303,-3.0303,-3.0303,-2.9783,-2.9792,-2.9887,-2.9932,-3.0004,-3.0066,-3.0177,-3.026,-3.0309,-3.0312,-3.0247,-3.0238,-3.0183,-3.0164,-3.0164,-3.0143,-3.0097,0,0]},{"header":{"parameterUnit":"m.s-1","parameterCategory":1,"la1":30.2992,"la2":30.254,"lo1":-89.0895,"lo2":-89.0443,"dy":0.0025,"dx":0.0025,"nx":19,"ny":19,"refTime":"2026-04-21T03:00:00:Z","depth":0,"parameterNumber":3,"parameterNumberName":"V-component_of_WINDS"},"data":[0,0,0,5.1819,5.1821,5.1885,5.1885,5.1985,5.1986,0,0,0,0,0,0,0,0,0,0,0,5.1813,5.1814,5.1819,5.1821,5.1885,5.1885,5.1985,5.1986,0,0,0,0,0,0,0,0,0,0,0,5.1813,5.1814,5.1815,5.1822,5.1885,5.1885,5.1984,5.1929,0,0,0,0,0,0,0,0,0,0,5.1864,5.1871,5.1814,5.1816,5.1822,5.1885,5.1885,5.1926,5.1933,5.1964,0,5.1997,0,5.1993,5.1994,5.1994,0,0,0,5.1811,5.1866,5.1872,5.1816,5.1823,5.1885,5.1854,5.193,5.1937,5.1972,5.1998,5.2001,5.1995,5.1995,5.1995,5.2209,5.2211,0,0,5.1808,5.1831,5.1867,5.1877,5.1871,5.1852,5.1856,5.1934,5.1963,5.1998,5.2003,5.1996,5.1995,5.1996,5.2208,5.221,0,0,0,5.1804,5.1829,5.1833,5.1874,5.1884,5.1854,5.1858,5.1959,5.1958,5.2004,5.1998,5.1996,5.1997,5.2206,5.2209,5.2302,0,0,0,5.1802,5.1827,5.1832,5.1847,5.1883,5.1923,5.1882,5.1953,5.1961,5.1997,5.1996,5.1999,5.2205,5.2207,5.2296,5.2341,0,0,0,5.1805,5.1827,5.1841,5.1848,5.1876,5.1921,5.1924,5.1954,5.1958,5.1994,5.1999,5.2204,5.2207,5.229,5.2332,5.2402,0,0,0,5.1814,5.1925,5.1843,5.1964,5.1876,5.1979,5.1924,5.1999,5.2042,5.1997,5.2205,5.2208,5.2289,5.2327,5.2397,5.2463,5.2494,0,0,5.1967,5.1944,5.2013,5.1942,5.2065,5.1968,5.2104,5.2121,5.2104,5.2174,5.2179,5.2298,5.2332,5.2401,5.2663,5.2688,0,0,0,5.2069,5.2119,5.2146,5.2188,5.2204,5.222,5.2214,5.2219,5.2278,5.2146,5.2342,5.2362,5.2401,5.2432,5.2453,5.2484,5.2224,5.2224,5.2224,5.2318,5.2288,5.2399,5.2376,5.2418,5.2409,5.2438,5.2444,5.2404,5.2451,5.2471,5.2633,5.267,5.2686,5.2719,5.2506,5.2506,5.2506,5.2507,5.2536,5.26,5.2541,5.2627,5.2594,5.2666,5.2661,5.2629,5.2689,5.2617,5.265,5.2571,5.2714,5.274,5.2513,5.2512,5.2511,5.2511,5.251,5.2694,5.2719,5.2724,5.2779,5.2824,5.2797,5.2857,5.2826,5.2796,5.283,5.2845,5.2843,5.2835,5.284,5.284,5.2841,5.2841,5.2842,5.2842,5.2854,5.2857,5.2911,5.2935,5.2956,5.2979,5.297,5.2989,5.3002,5.2974,5.2974,5.2926,5.2735,5.2685,5.2851,5.2849,5.2848,5.2847,5.2847,5.3082,5.3025,5.3109,5.313,5.3153,5.3198,5.3157,5.3198,5.321,5.3239,5.3185,5.3049,5.3023,5.3006,5.2965,5.3193,5.3193,5.3193,5.3193,5.3213,5.3197,5.3274,5.3308,5.3339,5.3309,5.3402,5.3395,5.3378,5.3383,5.3346,5.3289,5.3274,5.3257,5.3234,5.3195,5.3476,5.3477,5.3477,5.335,5.3335,5.3421,5.3404,5.3419,5.3432,5.3517,5.3557,5.3527,5.3488,5.3385,5.3373,5.3281,5.3254,5.3211,5.3177,5.3104,0,0]}]]